Flag for Kazakhstan Weather past 2 weeks in Aqtobe, Kazakhstan

48 °F


Feels Like: 46 °F
Forecast: 35 / 61 °F
Wind: 6 mph from South

Location: Aktjubinsk

Current Time: Oct 8, 2015 at 3:04:47 AM

Latest Report: Oct 8, 2015 at 2:30 AM

Visibility: 10 mi

Pressure: 29.53 "Hg

Humidity: 58%

Dew point: 34 °F

Location of AqtobeLocation

Historic Weather in Aqtobe — Graph


Aqtobe temperature yesterday

Maximum temperature yesterday: 57 °F (at 1:30 PM)
Minimum temperature yesterday: 39 °F (at 12:00 AM)
Average temperature yesterday: 50 °F

Past Weeks' High & Low Weather Summary

High84 °F (Sep 25, 2:30 PM)93% (Oct 2, 5:00 AM)30.57 "Hg (Oct 2, 5:00 AM)
Low25 °F (Oct 5, 8:00 AM)8% (Sep 30, 3:00 PM)29.45 "Hg (Oct 3, 6:30 PM)
Average55 °F39%30.15 "Hg
* Reported Sep 23 1:00 AM — Oct 8 1:30 AM, Aqtobe, Weather by CustomWeather, © 2015

Note: Actual official high and low records may vary slightly from our data, if they occured in-between our weather recording intervals... More about our weather records


Aqtobe weather history for previous 24 hours

Time TempWeatherWind HumidityBarometerVisibility
1:30 AM
Thu, Oct 8
50 °FClear.6 mph58%29.56 "Hg10 mi
1:00 AM52 °FMostly cloudy.10 mph54%29.59 "HgN/A
12:30 AM52 °FLight rain. Overcast.13 mph58%29.59 "HgN/A
12:00 AM54 °FClear.6 mph38%29.59 "Hg4 mi
11:30 PM
Wed, Oct 7
54 °FClear.8 mph38%29.62 "Hg5 mi
11:00 PM54 °FClear.8 mph41%29.62 "Hg4 mi
10:30 PM54 °FClear.1 mph44%29.62 "Hg4 mi
10:00 PM54 °FClear.3 mph41%29.65 "Hg4 mi
9:30 PM54 °FClear.6 mph41%29.65 "Hg2 mi
9:00 PM52 °FClear.6 mph54%29.65 "Hg10 mi
8:30 PM54 °FClear.3 mph44%29.68 "Hg4 mi
8:00 PM54 °FClear.3 mph47%29.68 "Hg3 mi
7:30 PM54 °FClear.3 mph44%29.68 "Hg2 mi
7:00 PM54 °FClear.3 mph44%29.68 "Hg2 mi
6:30 PM54 °FClear.6 mph47%29.68 "Hg4 mi
6:00 PM54 °FSunny.3 mph47%29.68 "Hg10 mi
5:30 PM54 °FLight rain. Mostly cloudy.6 mph44%29.71 "HgN/A
5:00 PM55 °FSunny.10 mph38%29.71 "Hg10 mi
4:30 PM57 °FSunny.8 mph29%29.71 "Hg10 mi
4:00 PM55 °FSunny.10 mph31%29.71 "Hg10 mi
3:30 PM55 °FSunny.13 mph28%29.74 "Hg10 mi
3:00 PM55 °FPartly sunny.13 mph28%29.74 "HgN/A
2:30 PM54 °FPartly sunny.10 mph35%29.74 "HgN/A
2:00 PM55 °FClear.15 mph24%29.74 "Hg5 mi
1:30 PM57 °FClear.13 mph25%29.74 "Hg5 mi
1:00 PM55 °FPartly sunny.13 mph31%29.74 "Hg6 mi
12:30 PM55 °FBroken clouds.10 mph24%29.77 "HgN/A
12:00 PM55 °FBroken clouds.13 mph23%29.77 "Hg4 mi
11:30 AM54 °FBroken clouds.10 mph26%29.77 "Hg5 mi
11:00 AM52 °FClear.8 mph30%29.80 "Hg6 mi
10:30 AM52 °FSunny.10 mph28%29.80 "Hg10 mi
10:00 AM52 °FSunny.10 mph26%29.80 "Hg10 mi
9:30 AM50 °FPartly sunny.6 mph32%29.80 "HgN/A
9:00 AM50 °FPartly sunny.6 mph28%29.80 "Hg5 mi
8:30 AM48 °FPartly sunny.6 mph25%29.80 "Hg5 mi
7:30 AM48 °FClear.6 mph25%29.80 "Hg6 mi
7:00 AM48 °FClear.6 mph25%29.80 "Hg10 mi
6:30 AM46 °FClear.3 mph27%29.80 "Hg10 mi
6:00 AM46 °FClear.6 mph25%29.83 "Hg5 mi
5:30 AM46 °FClear.3 mph27%29.83 "Hg4 mi
5:00 AM46 °FClear.3 mph27%29.83 "Hg3 mi
4:30 AM45 °FClear.3 mph27%29.83 "Hg4 mi
4:00 AM45 °FClear.3 mph27%29.86 "Hg4 mi
3:30 AM45 °FClear.1 mph29%29.86 "Hg4 mi
3:00 AM45 °FClear.3 mph29%29.86 "Hg4 mi
Weather by CustomWeather, © 2015

See weather overviewHow to use our weather pages